• In Belarus
  • List of Countries
  • For 7 days
  • Water Temperature
  • Satellite Maps
  • Weather Map
  • Weather Widgets
  • user-avatar
    Login

    Hourly Weather Coleraine

    Today, 24 March, Sunday

    Time Temperature Precipitation Wind Pressure Humidity
    00:00 +1°C° 0 mm 5 mps 771 mmHg 86%
    01:00 +1°C° 0 mm 5 mps 771 mmHg 86%
    02:00 +1°C° 0 mm 6 mps 770 mmHg 85%
    03:00 +2°C° 0 mm 6 mps 770 mmHg 85%
    04:00 +2°C° 0 mm 6 mps 770 mmHg 85%
    05:00 +2°C° 0 mm 6 mps 770 mmHg 85%
    06:00 +2°C° 0 mm 6 mps 769 mmHg 85%
    07:00 +3°C° 0 mm 7 mps 769 mmHg 82%
    08:00 +4°C° 0 mm 8 mps 769 mmHg 79%
    09:00 +5°C° 0 mm 9 mps 769 mmHg 75%
    10:00 +6°C° 0.2 mm 9 mps 769 mmHg 75%
    11:00 +6°C° 0.2 mm 9 mps 769 mmHg 74%
    12:00 +7°C° 0.2 mm 9 mps 769 mmHg 74%
    13:00 +7°C° 0.2 mm 10 mps 769 mmHg 73%
    14:00 +7°C° 0.2 mm 10 mps 770 mmHg 73%
    15:00 +7°C° 0.2 mm 10 mps 770 mmHg 72%
    16:00 +7°C° 0.1 mm 10 mps 770 mmHg 75%
    17:00 +6°C° 0.1 mm 9 mps 770 mmHg 79%
    18:00 +5°C° 0.1 mm 9 mps 770 mmHg 83%
    19:00 +5°C° 0 mm 9 mps 771 mmHg 82%
    20:00 +5°C° 0 mm 9 mps 771 mmHg 80%
    21:00 +3°C° 0 mm 9 mps 771 mmHg 79%
    22:00 +4°C° 0 mm 8 mps 772 mmHg 79%
    23:00 +4°C° 0 mm 8 mps 772 mmHg 79%

    Tomorrow, 25 March, Monday

    Time Temperature Precipitation Wind Pressure Humidity
    00:00 +4°C° 0 mm 7 mps 772 mmHg 78%
    01:00 +4°C° 0 mm 6 mps 772 mmHg 79%
    02:00 +4°C° 0 mm 6 mps 773 mmHg 80%
    03:00 +5°C° 0 mm 5 mps 773 mmHg 80%
    04:00 +5°C° 0 mm 5 mps 773 mmHg 82%
    05:00 +5°C° 0 mm 4 mps 773 mmHg 84%
    06:00 +5°C° 0 mm 4 mps 774 mmHg 86%
    07:00 +6°C° 0 mm 4 mps 774 mmHg 83%
    08:00 +7°C° 0 mm 3 mps 774 mmHg 81%
    09:00 +8°C° 0 mm 3 mps 774 mmHg 78%
    10:00 +9°C° 0 mm 3 mps 774 mmHg 75%
    11:00 +9°C° 0 mm 3 mps 774 mmHg 71%
    12:00 +10°C° 0 mm 3 mps 774 mmHg 67%
    13:00 +10°C° 0 mm 3 mps 775 mmHg 67%
    14:00 +10°C° 0 mm 3 mps 775 mmHg 67%
    15:00 +10°C° 0 mm 4 mps 775 mmHg 67%
    16:00 +10°C° 0 mm 3 mps 775 mmHg 71%
    17:00 +9°C° 0 mm 3 mps 774 mmHg 74%
    18:00 +8°C° 0 mm 2 mps 774 mmHg 78%
    19:00 +7°C° 0 mm 2 mps 775 mmHg 82%
    20:00 +6°C° 0 mm 2 mps 775 mmHg 87%
    21:00 +5°C° 0 mm 2 mps 775 mmHg 91%
    22:00 +4°C° 0 mm 2 mps 775 mmHg 91%
    23:00 +4°C° 0 mm 2 mps 775 mmHg 92%

    Day after tomorrow, 26 March, Tuesday

    Time Temperature Precipitation Wind Pressure Humidity
    00:00 +3°C° 0 mm 3 mps 775 mmHg 92%
    01:00 +3°C° 0 mm 3 mps 775 mmHg 93%
    02:00 +2°C° 0 mm 3 mps 774 mmHg 93%
    03:00 +2°C° 0 mm 3 mps 774 mmHg 93%
    04:00 +2°C° 0 mm 3 mps 774 mmHg 93%
    05:00 +2°C° 0 mm 3 mps 774 mmHg 93%
    06:00 +1°C° 0 mm 4 mps 774 mmHg 93%
    07:00 +4°C° 0 mm 4 mps 774 mmHg 90%
    08:00 +5°C° 0 mm 5 mps 774 mmHg 86%
    09:00 +7°C° 0 mm 5 mps 774 mmHg 83%
    10:00 +8°C° 0 mm 5 mps 774 mmHg 79%
    11:00 +8°C° 0 mm 5 mps 774 mmHg 75%
    12:00 +9°C° 0 mm 5 mps 774 mmHg 71%
    13:00 +9°C° 0 mm 5 mps 774 mmHg 73%
    14:00 +9°C° 0 mm 5 mps 774 mmHg 75%
    15:00 +10°C° 0 mm 4 mps 774 mmHg 77%
    16:00 +8°C° 0 mm 4 mps 774 mmHg 78%
    17:00 +8°C° 0 mm 4 mps 773 mmHg 80%
    18:00 +9°C° 0 mm 3 mps 773 mmHg 81%
    19:00 +8°C° 0 mm 3 mps 774 mmHg 83%
    20:00 +8°C° 0 mm 3 mps 774 mmHg 85%
    21:00 +7°C° 0 mm 3 mps 774 mmHg 87%
    22:00 +7°C° 0 mm 3 mps 774 mmHg 87%
    23:00 +7°C° 0 mm 3 mps 774 mmHg 88%

    27 March, Wednesday

    Time Temperature Precipitation Wind Pressure Humidity
    00:00 +5°C° 0 mm 3 mps 774 mmHg 89%
    01:00 +5°C° 0 mm 3 mps 774 mmHg 90%
    02:00 +4°C° 0 mm 3 mps 774 mmHg 91%
    03:00 +4°C° 0 mm 3 mps 774 mmHg 93%
    04:00 +3°C° 0 mm 3 mps 774 mmHg 94%
    05:00 +3°C° 0 mm 3 mps 774 mmHg 94%
    06:00 +3°C° 0 mm 3 mps 774 mmHg 95%
    07:00 +4°C° 0 mm 3 mps 774 mmHg 91%
    08:00 +7°C° 0 mm 3 mps 774 mmHg 88%
    09:00 +8°C° 0 mm 3 mps 774 mmHg 84%
    10:00 +8°C° 0 mm 4 mps 775 mmHg 81%
    11:00 +10°C° 0 mm 4 mps 775 mmHg 78%
    12:00 +10°C° 0 mm 4 mps 775 mmHg 75%
    13:00 +11°C° 0 mm 4 mps 775 mmHg 74%
    14:00 +11°C° 0 mm 4 mps 775 mmHg 73%
    15:00 +11°C° 0 mm 3 mps 775 mmHg 72%
    16:00 +10°C° 0 mm 3 mps 775 mmHg 75%
    17:00 +10°C° 0 mm 3 mps 775 mmHg 78%
    18:00 +9°C° 0 mm 3 mps 775 mmHg 81%
    19:00 +8°C° 0 mm 3 mps 775 mmHg 83%
    20:00 +7°C° 0 mm 3 mps 775 mmHg 86%
    21:00 +5°C° 0 mm 3 mps 775 mmHg 88%
    22:00 +6°C° 0 mm 2 mps 776 mmHg 88%
    23:00 +6°C° 0 mm 2 mps 776 mmHg 88%

    28 March, Thursday

    Time Temperature Precipitation Wind Pressure Humidity
    00:00 +6°C° 0 mm 2 mps 776 mmHg 88%
    01:00 +4°C° 0 mm 3 mps 776 mmHg 90%
    02:00 +4°C° 0 mm 3 mps 775 mmHg 92%
    03:00 +3°C° 0 mm 3 mps 775 mmHg 94%
    04:00 +3°C° 0 mm 3 mps 775 mmHg 94%
    05:00 +2°C° 0 mm 3 mps 775 mmHg 95%
    06:00 +2°C° 0 mm 3 mps 775 mmHg 95%
    07:00 +4°C° 0 mm 3 mps 775 mmHg 91%
    08:00 +5°C° 0 mm 3 mps 775 mmHg 87%
    09:00 +8°C° 0 mm 3 mps 775 mmHg 83%
    10:00 +9°C° 0 mm 3 mps 775 mmHg 79%
    11:00 +10°C° 0 mm 3 mps 774 mmHg 74%
    12:00 +11°C° 0 mm 3 mps 774 mmHg 70%
    13:00 +12°C° 0 mm 3 mps 773 mmHg 67%
    14:00 +13°C° 0 mm 3 mps 773 mmHg 65%
    15:00 +13°C° 0 mm 3 mps 772 mmHg 63%
    16:00 +13°C° 0 mm 3 mps 772 mmHg 67%
    17:00 +13°C° 0 mm 2 mps 771 mmHg 72%
    18:00 +12°C° 0 mm 2 mps 771 mmHg 76%
    19:00 +10°C° 0 mm 3 mps 771 mmHg 80%
    20:00 +9°C° 0 mm 3 mps 771 mmHg 84%
    21:00 +6°C° 0 mm 4 mps 771 mmHg 87%
    22:00 +6°C° 0 mm 4 mps 770 mmHg 84%
    23:00 +5°C° 0 mm 4 mps 770 mmHg 80%

    29 March, Friday

    Time Temperature Precipitation Wind Pressure Humidity
    00:00 +5°C° 0 mm 5 mps 770 mmHg 76%
    01:00 +3°C° 0 mm 5 mps 770 mmHg 77%
    02:00 +3°C° 0 mm 5 mps 769 mmHg 78%
    03:00 +3°C° 0 mm 5 mps 769 mmHg 79%
    04:00 +3°C° 0 mm 4 mps 769 mmHg 84%
    05:00 +3°C° 0 mm 4 mps 769 mmHg 89%
    06:00 +3°C° 0 mm 4 mps 769 mmHg 93%
    07:00 +5°C° 0 mm 4 mps 769 mmHg 90%
    08:00 +6°C° 0 mm 4 mps 768 mmHg 86%
    09:00 +8°C° 0 mm 4 mps 768 mmHg 82%
    10:00 +8°C° 0 mm 5 mps 768 mmHg 80%
    11:00 +9°C° 0 mm 5 mps 768 mmHg 78%
    12:00 +9°C° 0 mm 5 mps 768 mmHg 76%
    13:00 +9°C° 0 mm 5 mps 767 mmHg 76%
    14:00 +9°C° 0 mm 5 mps 767 mmHg 77%
    15:00 +9°C° 0 mm 5 mps 766 mmHg 77%
    16:00 +9°C° 0 mm 5 mps 766 mmHg 79%
    17:00 +9°C° 0 mm 5 mps 765 mmHg 80%
    18:00 +8°C° 0 mm 4 mps 765 mmHg 82%
    19:00 +8°C° 0 mm 4 mps 765 mmHg 85%
    20:00 +7°C° 0 mm 4 mps 765 mmHg 87%
    21:00 +7°C° 0 mm 4 mps 765 mmHg 90%
    22:00 +7°C° 0 mm 4 mps 764 mmHg 91%
    23:00 +7°C° 0 mm 4 mps 764 mmHg 92%
    Show more